Terminal Aerodrome Forecast
Issued by NWS

Home | Current Version | Previous Version | Text Only | Print | Product List | Glossary On
Versions: 1 2 3 4 5 6 7 8 9 10 11 12 13 14 15 16 17 18
000
FTUS46 KMTR 290849 AAA
TAFSNS
TAF AMD
KSNS 290849Z 2909/3006 00000KT 5SM BR BKN005
     FM291600 VRB03KT P6SM SKC
     FM291900 29009KT P6SM SKC
     FM292100 30013KT P6SM SKC
     FM300500 30006KT P6SM SKC=

USA.gov is the U.S. government's official web portal to all federal, state and local government web resources and services.